Weather History for Culdrose, United Kingdom

Change the Weather History Date:

Tuesday, January 22, 2013

  Actual Average Record
Temperature  
Mean Temperature 37 °F -  
Max Temperature 42 °F 46 °F 51 °F (2001)
Min Temperature 32 °F 38 °F 28 °F (2011)
Degree Days  
Heating Degree Days 28    
Moisture  
Dew Point 36 °F    
Average Humidity 89    
Maximum Humidity 100    
Minimum Humidity 79    
Precipitation  
Precipitation 0.04 in - - ()
Sea Level Pressure  
Sea Level Pressure 29.42 in    
Wind  
Wind Speed 8 mph ()    
Max Wind Speed 16 mph    
Max Gust Speed 23 mph    
Visibility 6.0 miles    
Events Rain    
Averages and records for this station are not official NWS values.
T = Trace of Precipitation, MM = Missing Value Source: Averaged Metar Reports

Daily Weather History Graph

Daily Weather History Graph

Search for Another Location

Airport:

Trip Planner

Search our weather history database for the weather conditions in past years. The results will help you decide how hot, cold, wet, or windy it might be!

Date:

Astronomy

Jan. 22, 2013 Rise Set
Actual Time 8:07 AM GMT 4:58 PM GMT
Civil Twilight 7:31 AM GMT 5:34 PM GMT
Nautical Twilight 6:51 AM GMT 6:14 PM GMT
Astronomical Twilight 6:13 AM GMT 6:52 PM GMT
Moon 1:06 PM GMT (1/22) 4:20 AM GMT (1/22)
Length of Visible Light 10h 03m
Length of Day
8h 51m
Waxing Gibbous, 81% of the Moon is Illuminated
Jan 22
Waxing Gibbous
Jan 27
Full
Feb 3
Last Quarter
Feb 10
New
Feb 17
First Quarter

Hourly Weather History & Observations

Time (GMT) Temp. Windchill Dew Point Humidity Pressure Visibility Wind Dir Wind Speed Gust Speed Precip Events Conditions
12:50 AM 35.6 °F 29.2 °F 35.6 °F 100% 29.30 in 6.2 mi ESE 8.1 mph - N/A   Scattered Clouds
1:50 AM 35.6 °F 31.7 °F 33.8 °F 93% 29.30 in 6.2 mi WSW 4.6 mph - N/A   Scattered Clouds
2:50 AM 39 °F - 35 °F 81% 29.33 in 11 mi WSW 6.9 mph - -   Partly Cloudy
2:50 AM 39.2 °F 34.2 °F 35.6 °F 87% 29.30 in 6.2 mi WSW 6.9 mph - N/A   Scattered Clouds
3:50 AM 41.0 °F 37.1 °F 35.6 °F 81% 29.30 in 6.2 mi SW 5.8 mph - N/A   Scattered Clouds
4:50 AM 32.0 °F 28.7 °F 32.0 °F 100% 29.30 in 6.2 mi SW 3.5 mph - N/A   Haze
5:50 AM 39 °F - 35 °F 79% 29.32 in 9 mi South 6.9 mph - -   Haze
6:50 AM 33.8 °F 28.6 °F 32.0 °F 93% 29.30 in 6.2 mi South 5.8 mph - N/A   Mostly Cloudy
7:50 AM 33.8 °F 29.6 °F 33.8 °F 100% 29.33 in 6.2 mi SE 4.6 mph - N/A   Mostly Cloudy
8:50 AM 35 °F - 33 °F 91% 29.36 in 9 mi East 5.8 mph - -   Overcast
8:50 AM 33.8 °F 28.6 °F 33.8 °F 100% 29.33 in 6.2 mi East 5.8 mph - N/A   Overcast
9:50 AM 37.4 °F 30.3 °F 35.6 °F 93% 29.36 in 6.2 mi ENE 10.4 mph - N/A   Scattered Clouds
10:50 AM 39.2 °F 35.9 °F 37.4 °F 93% 29.39 in 6.2 mi NE 4.6 mph - N/A   Mostly Cloudy
11:50 AM 41 °F - 38 °F 85% 29.40 in 5 mi ENE 10.4 mph - -   Mostly Cloudy
11:50 AM 41.0 °F 34.7 °F 37.4 °F 87% 29.39 in 5.0 mi ENE 10.4 mph 23.0 mph N/A   Mostly Cloudy
11:59 AM 41.0 °F 33.1 °F 37.4 °F 87% 29.39 in 3.7 mi ENE 15.0 mph - N/A Rain Light Rain Showers
12:50 PM 41.0 °F 37.1 °F 39.2 °F 93% 29.39 in 3.1 mi NNE 5.8 mph - N/A Rain Light Rain
1:50 PM 42.8 °F 37.0 °F 39.2 °F 87% 29.39 in 5.0 mi NE 10.4 mph - N/A   Mostly Cloudy
2:50 PM 41 °F - 37 °F 80% 29.43 in 5 mi NE 11.5 mph - - Rain Light Rain
2:50 PM 41.0 °F 34.3 °F 37.4 °F 87% 29.42 in 5.0 mi NE 11.5 mph - N/A   Overcast
3:50 PM 41.0 °F 34.7 °F 37.4 °F 87% 29.42 in 3.7 mi North 10.4 mph - N/A   Mostly Cloudy
4:50 PM 39.2 °F 32.0 °F 35.6 °F 87% 29.44 in 5.0 mi NE 11.5 mph - N/A   Haze
5:50 PM 38 °F - 36 °F 88% 29.51 in 5 mi NNE 11.5 mph - -   Overcast
5:50 PM 37.4 °F 29.8 °F 35.6 °F 93% 29.47 in 5.0 mi NNE 11.5 mph - N/A   Overcast
6:50 PM 37.4 °F 28.2 °F 35.6 °F 93% 29.50 in 3.1 mi NE 16.1 mph - N/A Rain Light Rain
7:50 PM 37.4 °F 28.5 °F 35.6 °F 93% 29.53 in 6.2 mi NE 15.0 mph - N/A   Overcast
8:50 PM 37 °F - 34 °F 86% 29.59 in 7 mi NE 16.1 mph - - Rain Light Rain
8:50 PM 37.4 °F 28.2 °F 33.8 °F 87% 29.56 in 6.2 mi NE 16.1 mph - N/A Rain Light Rain
9:50 PM 37.4 °F 28.5 °F 33.8 °F 87% 29.59 in 6.2 mi NE 15.0 mph - N/A   Mostly Cloudy
10:50 PM 37.4 °F 29.8 °F 35.6 °F 93% 29.59 in 6.2 mi NNE 11.5 mph - N/A   Mostly Cloudy
11:50 PM 38 °F - 35 °F 85% 29.64 in 11 mi NNE 12.7 mph - -   Partly Cloudy
11:50 PM 39.2 °F 31.6 °F 35.6 °F 87% 29.62 in 6.2 mi NNE 12.7 mph - N/A   Overcast